Wetbulb
68.89 69.00 67.85 67.45 67.51 67.10 66.54 65.34 62.29 58.21 58.47 61.73 60.93 64.71 64.57 65.06 65.32 66.12 65.82 64.61 62.97 62.88 62.38 62.38 62.75 63.25 63.49 64.26 65.96 68.08 69.06 69.77 69.95 70.46 71.99 73.23 74.33 75.32
68.13 68.44 68.47 67.62 67.48 67.36 66.40 65.91 64.61 61.87 58.83 61.73 62.25 64.06 65.34 65.03 65.72 65.88 66.02 63.16 63.37 62.64 62.03 61.93 62.50 62.86 63.29 63.53 64.39 65.34 67.11 67.91 68.57 68.72 69.12 70.33 72.02 73.25
68.59 68.27 68.37 68.86 67.15 67.03 67.04 66.14 64.79 63.62 60.64 61.90 63.60 64.62 64.51 64.80 65.56 66.55 66.05 65.43 64.48 63.13 62.47 62.03 61.64 62.01 62.33 62.46 62.99 63.18 64.35 66.10 67.11 67.60 68.28 68.69 69.55 71.27
67.48 68.08 67.83 67.35 67.97 69.21 67.88 67.09 65.72 65.63 62.76 61.22 64.04 63.97 64.67 65.68 65.54 65.35 64.93 64.79 64.61 63.41 62.16 61.35 60.88 60.72 60.63 60.89 61.08 61.08 61.76 62.76 63.99 65.52 66.53 67.24 68.25 69.28
67.79 67.73 67.67 67.82 67.23 67.87 67.47 66.08 65.28 65.34 64.19 61.20 61.51 63.47 63.94 64.24 63.49 64.48 64.47 64.71 64.52 63.63 61.28 60.58 60.40 60.59 60.28 59.86 59.43 59.02 58.82 59.02 59.87 61.87 63.43 64.62 66.12 67.97
68.17 68.35 68.11 67.13 66.94 67.37 67.08 66.70 66.22 65.12 64.61 60.59 60.82 61.61 62.39 63.86 62.96 61.20 61.06 62.89 62.43 63.43 62.84 61.59 61.45 61.21 60.58 59.69 59.56 59.66 58.10 56.98 56.99 58.03 59.93 61.10 63.09 65.16
68.51 68.44 67.91 67.20 65.48 64.75 64.81 65.27 65.46 63.90 62.64 61.72 61.12 61.32 61.09 60.90 60.38 61.38 60.16 61.28 62.50 62.50 61.34 61.90 62.14 61.94 61.92 61.61 61.96 61.80 59.99 58.79 57.43 57.08 57.55 58.59 59.68 61.43
67.38 67.98 68.05 65.16 64.49 62.88 62.41 62.82 63.47 63.62 62.92 62.32 60.95 60.36 59.99 61.03 61.27 60.43 59.70 58.21 56.88 62.34 61.34 60.14 61.74 61.53 62.17 62.14 61.22 60.61 59.39 59.13 58.63 57.95 57.33 57.21 57.91 59.11
67.92 67.67 66.75 65.53 63.43 64.20 62.29 60.98 61.01 61.17 61.66 62.25 59.96 60.03 60.40 61.18 60.82 58.84 58.32 57.82 57.56 60.27 59.96 58.53 60.47 60.11 61.66 62.28 59.83 59.25 58.56 58.22 57.51 58.31 58.47 57.35 56.87 56.93
68.27 67.84 66.55 65.47 64.16 62.46 62.40 62.30 62.90 62.95 63.08 61.86 61.62 60.84 60.94 60.67 59.77 58.49 57.01 57.42 59.47 59.90 61.72 57.18 59.62 56.67 57.75 59.22 59.23 58.84 58.20 57.55 57.04 56.57 57.87 56.75 55.22 54.73
66.34 65.58 63.97 63.30 60.18 57.14 60.70 61.03 61.33 61.37 59.98 56.75 56.51 56.27 56.45 56.70 57.23 56.05 54.77 56.82 56.13 57.08 59.78 56.90 54.76 54.32 55.55 56.38 58.73 59.01 57.55 56.77 55.99 56.20 57.48 56.59 54.19 53.28
62.14 61.32 57.80 60.25 55.21 54.58 59.88 60.29 58.98 59.51 59.09 58.73 59.17 58.80 58.70 59.35 58.09 58.54 57.22 55.49 56.44 53.80 57.91 53.20 53.65 53.97 52.76 56.88 58.89 60.83 61.47 56.41 54.83 54.99 56.03 55.74 53.27 62.62
60.52 61.68 61.93 54.27 52.09 51.37 51.81 59.24 57.71 55.90 56.53 57.17 57.43 57.75 58.33 59.11 59.42 60.02 59.63 58.07 56.50 53.81 56.32 55.33 53.92 54.09 54.32 54.43 57.81 59.58 60.20 61.40 61.86 58.60 53.10 53.45 51.87 60.77
62.59 62.45 60.53 51.25 49.94 50.34 52.15 51.83 51.42 51.92 56.24 56.06 55.65 55.40 55.81 56.26 57.22 57.53 57.60 58.00 59.15 56.09 56.23 55.69 54.72 56.20 55.62 54.19 54.64 58.38 60.37 62.76 63.50 64.68 64.77 57.77 51.74 54.66
61.61 56.80 51.17 48.21 48.75 50.67 50.44 50.08 49.67 55.41 54.66 53.76 53.74 53.83 54.31 55.16 56.03 55.95 57.20 58.79 59.12 56.91 56.52 56.62 57.37 58.17 57.01 55.37 55.47 57.60 59.10 64.09 65.01 65.57 64.81 60.77 59.04 59.47
53.13 57.19 54.47 53.55 49.90 50.90 52.90 53.73 54.60 53.84 52.14 51.58 51.67 52.52 53.61 53.37 52.49 53.52 54.12 54.68 54.66 53.66 55.55 56.95 58.42 59.14 57.35 58.27 57.07 57.49 59.82 62.72 64.82 65.82 64.12 63.37 61.82 62.57
55.36 57.88 57.01 56.53 56.42 56.26 54.93 53.86 53.25 52.39 50.84 50.57 50.49 50.57 50.59 50.57 50.52 52.41 53.95 54.55 53.08 51.98 52.64 55.11 57.47 58.89 58.27 57.15 58.44 61.69 61.38 64.24 64.75 63.86 63.65 62.07 61.74 63.66
54.52 56.11 56.22 56.28 55.33 53.79 52.52 51.58 51.71 49.59 49.81 49.27 49.60 49.28 48.65 48.68 48.99 50.99 52.77 51.14 52.47 53.51 52.07 54.08 55.18 55.00 57.93 56.14 55.73 53.53 59.44 65.56 64.62 63.79 64.62 62.32 61.86 63.53
54.71 55.25 55.44 54.55 53.37 51.88 50.17 49.24 48.70 48.98 49.04 48.54 48.35 48.46 48.40 48.27 48.57 49.80 51.66 48.40 52.29 53.68 53.67 53.78 53.14 52.31 52.16 51.07 55.84 54.38 53.14 60.43 64.30 63.64 64.85 65.32 64.20 64.36
55.52 54.68 53.21 51.38 50.24 50.24 49.05 47.70 46.98 47.61 47.82 47.65 47.71 47.96 48.09 47.70 48.03 48.60 50.99 50.27 50.81 51.43 52.67 54.17 52.32 51.51 51.43 51.40 53.19 55.74 52.52 55.78 57.93 64.19 63.52 66.20 63.74 59.32
52.68 51.62 50.82 49.94 50.26 50.01 48.01 46.46 45.74 46.62 45.92 46.94 47.16 47.31 47.60 47.43 47.29 48.10 50.65 47.97 48.39 47.62 51.32 50.86 51.45 52.89 54.78 56.05 51.08 51.42 54.06 52.54 53.29 52.75 59.85 62.96 63.68 63.04
51.20 49.92 49.79 50.44 50.34 48.04 46.31 45.42 46.78 47.42 47.16 46.77 46.67 47.15 47.46 47.43 46.97 47.22 49.65 48.92 49.27 47.63 48.12 52.07 52.45 51.80 51.54 51.04 49.71 49.60 50.19 53.27 53.53 52.66 52.45 51.74 57.49 61.55
51.04 50.99 50.81 50.60 48.63 47.04 46.72 47.58 47.74 47.71 46.71 46.11 46.23 46.63 47.12 46.41 47.41 47.57 48.11 49.23 47.90 50.01 48.45 50.09 49.91 49.93 48.70 49.17 49.13 48.77 48.81 49.02 51.08 50.06 50.60 51.49 52.33 52.51
MSLP
1019.09 1019.23 1019.16 1018.87 1019.16 1019.06 1019.11 1019.07 1018.79 1017.99 1017.44 1017.40 1017.88 1017.69 1017.56 1017.50 1017.52 1017.58 1017.27 1017.17 1017.30 1017.14 1016.92 1016.71 1016.54 1016.44 1016.27 1015.97 1015.65 1015.43 1015.37 1015.28 1015.15 1015.15 1015.14 1015.17 1015.30 1015.53
1018.73 1018.82 1018.86 1018.55 1018.76 1018.92 1018.97 1019.09 1019.06 1018.57 1017.53 1017.24 1017.37 1017.58 1017.42 1017.20 1017.09 1017.11 1016.80 1016.92 1016.48 1016.31 1016.22 1016.00 1015.88 1015.63 1015.51 1015.44 1015.20 1014.89 1014.61 1014.53 1014.46 1014.43 1014.44 1014.49 1014.54 1014.71
1018.49 1018.46 1018.42 1018.36 1018.23 1018.18 1018.31 1018.74 1018.65 1018.70 1018.05 1016.88 1016.96 1017.40 1017.32 1017.13 1016.78 1016.60 1016.40 1015.99 1015.53 1015.34 1015.30 1015.13 1015.04 1014.96 1014.64 1014.48 1014.37 1014.15 1013.90 1013.72 1013.59 1013.64 1013.63 1013.62 1013.75 1013.89
1017.53 1017.69 1017.85 1017.80 1017.78 1017.59 1017.67 1017.85 1017.91 1017.96 1018.08 1017.08 1016.51 1016.49 1016.46 1016.09 1016.24 1016.03 1015.74 1015.31 1014.88 1014.50 1014.54 1014.37 1014.12 1014.00 1013.72 1013.53 1013.38 1013.17 1012.96 1012.76 1012.77 1012.68 1012.77 1012.73 1012.77 1012.91
1017.12 1017.11 1017.14 1017.25 1017.18 1017.21 1017.07 1017.01 1016.99 1017.14 1017.21 1017.45 1016.35 1015.92 1015.82 1015.67 1015.38 1015.22 1014.94 1014.65 1014.36 1013.91 1013.61 1013.35 1012.94 1012.76 1012.68 1012.48 1012.29 1012.10 1011.91 1011.71 1011.57 1011.68 1011.67 1011.73 1011.70 1011.79
1016.53 1016.63 1016.72 1016.59 1016.50 1016.63 1016.84 1016.76 1016.76 1016.60 1016.50 1016.78 1016.42 1015.43 1014.95 1014.79 1014.74 1014.28 1013.56 1013.32 1013.10 1012.86 1012.52 1012.20 1011.83 1011.31 1011.16 1011.06 1010.86 1010.64 1010.56 1010.50 1010.32 1010.30 1010.47 1010.54 1010.61 1010.68
1015.88 1016.11 1016.31 1016.33 1016.37 1016.16 1016.39 1016.14 1016.20 1016.01 1015.64 1015.44 1015.05 1014.40 1013.91 1013.67 1013.53 1013.44 1013.00 1012.50 1012.15 1012.15 1011.37 1010.76 1010.31 1009.72 1009.24 1009.06 1008.86 1008.68 1008.67 1008.76 1008.78 1008.77 1009.01 1009.18 1009.48 1009.59
1015.16 1015.36 1015.56 1015.89 1016.07 1016.00 1016.17 1015.97 1015.95 1015.70 1015.37 1015.13 1014.40 1014.09 1014.24 1013.96 1013.14 1013.07 1012.76 1011.96 1010.92 1011.14 1010.40 1009.52 1009.77 1008.28 1007.96 1007.47 1007.12 1007.14 1007.09 1007.23 1007.26 1007.36 1007.49 1007.82 1008.12 1008.53
1014.78 1015.05 1015.08 1015.17 1015.71 1015.57 1015.50 1015.42 1015.37 1015.29 1015.24 1015.07 1014.79 1014.49 1013.94 1013.67 1013.41 1013.20 1013.04 1012.22 1011.21 1010.64 1010.23 1007.92 1008.54 1007.12 1006.58 1005.87 1005.87 1005.81 1005.75 1005.81 1005.87 1006.11 1006.31 1006.45 1006.77 1007.28
1014.37 1014.49 1014.72 1014.94 1015.20 1015.41 1015.35 1014.84 1014.56 1014.45 1014.69 1014.37 1014.18 1014.09 1013.86 1013.55 1013.48 1013.12 1012.86 1012.03 1010.90 1009.91 1009.27 1006.86 1006.78 1005.62 1005.43 1004.76 1004.39 1004.18 1004.13 1004.15 1004.32 1004.63 1004.91 1005.16 1005.45 1005.99
1014.33 1014.55 1014.53 1014.65 1014.97 1015.42 1015.10 1014.59 1014.26 1013.86 1013.98 1014.36 1014.28 1014.05 1013.62 1013.11 1013.19 1012.99 1011.98 1010.77 1009.21 1008.23 1008.11 1007.04 1005.84 1004.65 1004.03 1003.03 1002.40 1002.11 1002.07 1002.30 1002.66 1003.08 1003.45 1003.85 1004.23 1004.82
1014.93 1014.70 1014.63 1014.61 1014.96 1015.14 1014.89 1014.36 1014.11 1013.71 1013.91 1013.60 1013.21 1013.00 1012.48 1011.81 1011.85 1011.82 1011.11 1010.23 1008.74 1007.74 1007.25 1007.01 1004.98 1003.98 1001.91 1001.07 1000.45 1000.10 999.98 1000.31 1000.91 1001.49 1001.96 1002.50 1003.06 1003.98
1014.29 1014.00 1014.00 1014.48 1014.82 1014.98 1014.91 1014.36 1014.27 1014.34 1013.85 1013.32 1012.64 1012.05 1011.73 1011.14 1010.75 1010.52 1010.42 1009.79 1008.59 1007.55 1006.30 1005.69 1003.58 1002.20 1001.37 999.88 999.20 998.85 998.83 998.65 998.99 1000.00 1000.67 1001.19 1001.85 1002.60
1013.33 1013.26 1013.71 1014.34 1014.60 1014.82 1014.77 1014.53 1014.55 1014.23 1013.19 1012.66 1012.22 1011.55 1011.24 1010.75 1010.34 1010.08 1009.68 1008.95 1008.18 1007.45 1005.51 1004.30 1002.22 1000.72 999.77 999.25 998.67 998.26 997.83 997.32 997.35 997.77 998.62 999.99 1000.86 1001.51
1013.13 1013.34 1013.85 1014.13 1014.28 1014.45 1014.48 1014.41 1014.13 1013.31 1012.95 1012.67 1012.03 1011.49 1011.15 1010.77 1010.41 1009.54 1008.77 1008.00 1007.24 1005.95 1004.54 1002.98 1001.13 999.66 999.24 998.73 998.24 997.52 997.12 996.02 996.71 997.05 997.86 998.79 999.81 1000.80
1013.53 1013.40 1013.56 1013.63 1013.95 1013.95 1013.86 1013.64 1013.41 1013.26 1013.17 1012.67 1012.06 1011.61 1010.92 1010.36 1009.66 1009.07 1008.24 1007.73 1006.88 1005.28 1003.55 1001.92 1000.34 999.09 998.48 998.22 997.78 997.08 996.57 995.76 996.13 996.48 997.27 998.12 998.98 999.64
1012.96 1012.88 1012.80 1012.85 1012.98 1013.06 1013.08 1013.19 1013.18 1013.21 1012.91 1012.46 1011.96 1011.29 1010.63 1010.10 1009.41 1008.93 1008.14 1007.48 1006.78 1005.43 1003.45 1001.66 1000.18 998.79 998.45 998.30 996.90 996.12 995.96 995.70 995.79 996.18 996.86 997.53 998.35 998.74
1012.89 1012.30 1012.20 1012.40 1012.62 1012.89 1012.88 1012.88 1012.88 1013.15 1012.79 1012.49 1011.80 1011.22 1010.69 1010.09 1009.41 1008.79 1008.17 1007.69 1006.57 1005.42 1004.18 1002.41 1000.82 999.01 998.35 998.20 997.99 996.97 995.89 995.49 995.74 996.08 996.49 997.03 997.64 998.25
1012.34 1012.07 1012.00 1012.44 1012.68 1012.89 1012.93 1012.92 1012.78 1012.87 1013.06 1012.19 1011.72 1011.25 1010.84 1010.19 1009.45 1008.77 1008.02 1007.90 1006.43 1005.58 1004.65 1003.41 1002.20 1000.89 999.20 998.62 998.40 998.53 997.56 996.50 995.98 996.13 996.32 996.55 996.84 997.33
1012.12 1011.91 1012.21 1012.52 1012.81 1012.89 1013.01 1013.05 1012.94 1012.67 1012.42 1012.08 1011.68 1011.25 1010.85 1010.27 1009.43 1008.80 1008.08 1007.83 1006.87 1006.02 1005.02 1004.00 1003.20 1002.19 1001.05 1000.04 998.88 998.85 998.70 997.58 996.80 996.17 996.39 996.57 996.90 996.91
1012.22 1012.45 1012.62 1012.70 1012.88 1013.03 1013.16 1013.27 1013.18 1012.71 1012.79 1012.22 1011.67 1011.32 1010.90 1010.22 1009.47 1008.89 1008.15 1007.71 1007.24 1006.75 1005.62 1004.86 1004.13 1003.36 1002.16 1000.86 999.80 999.66 999.02 998.67 998.09 997.70 997.09 996.83 997.00 997.45
1012.26 1012.47 1012.81 1012.98 1013.10 1013.26 1013.28 1013.16 1012.85 1012.77 1012.50 1012.11 1011.82 1011.52 1011.06 1010.28 1009.64 1008.95 1008.23 1007.75 1007.17 1006.93 1006.27 1005.50 1004.57 1003.76 1003.00 1002.42 1001.92 1001.42 1000.43 999.90 999.24 998.53 998.28 998.29 997.77 997.26
1012.24 1012.35 1012.66 1012.95 1013.19 1013.28 1013.13 1013.00 1013.01 1012.83 1012.64 1012.37 1012.08 1011.73 1011.20 1010.41 1009.80 1009.14 1008.47 1007.84 1007.50 1006.74 1006.38 1005.65 1005.44 1004.85 1004.39 1003.78 1003.20 1002.63 1002.03 1001.25 1000.34 999.47 999.05 999.31 998.84 997.61
Wind_Speed
6 6 7 5 6 5 6 6 7 9 8 4 5 3 5 6 8 9 9 9 11 12 12 11 12 14 15 16 16 16 17 18 18 17 17 20 21 23
6 7 7 6 6 6 6 7 7 8 11 6 7 8 9 8 10 10 10 12 14 11 12 13 14 15 16 16 17 17 18 19 19 19 19 18 18 20
7 8 9 8 7 7 7 7 8 8 10 11 9 8 11 11 10 10 11 11 11 12 12 13 15 16 17 18 19 18 19 20 21 20 21 20 20 21
8 8 9 7 10 9 7 9 9 9 10 14 12 10 12 11 12 13 12 11 11 11 12 15 16 19 19 20 20 20 19 19 21 22 21 22 22 22
8 8 9 8 10 9 9 8 9 8 9 10 13 11 10 10 12 13 12 13 12 15 16 22 22 21 21 21 21 22 21 21 21 23 23 23 23 23
9 9 10 9 9 9 7 9 10 9 9 8 10 11 10 9 9 12 12 11 12 13 14 16 19 21 22 23 24 24 24 22 22 23 24 24 24 24
9 9 10 10 10 9 7 9 9 9 10 9 11 11 11 10 11 12 13 13 13 12 13 13 14 14 15 17 21 24 25 25 24 24 25 24 23 23
9 10 9 9 11 10 11 12 10 11 12 10 11 12 12 13 11 12 13 14 15 11 13 15 15 15 15 16 21 22 21 19 20 23 25 24 23 23
9 10 9 6 5 7 7 9 11 10 12 10 10 11 14 15 13 15 15 13 13 13 16 19 15 18 16 16 23 25 26 24 21 20 24 25 24 24
10 9 8 8 5 5 8 9 9 7 8 7 9 11 12 14 14 12 13 14 15 14 15 21 15 18 15 15 27 28 27 26 27 24 24 24 23 23
8 7 7 7 2 5 8 9 9 8 4 10 11 14 16 18 17 10 12 13 15 15 14 18 18 18 16 16 16 27 29 27 26 24 22 23 22 21
4 6 7 6 2 5 7 6 7 7 8 11 12 11 11 12 13 12 11 11 15 14 16 15 17 15 14 11 14 16 17 25 26 24 22 22 21 13
8 8 5 5 6 6 4 5 6 8 10 10 10 9 10 10 9 9 11 12 13 14 19 16 16 15 12 9 8 8 9 14 16 16 21 22 20 20
9 4 3 4 7 5 6 2 6 8 7 8 8 8 9 10 10 12 15 15 13 16 21 22 15 14 7 6 8 6 11 14 13 12 12 13 19 24
4 2 3 3 5 7 2 3 7 5 6 8 8 8 9 10 13 13 14 16 17 16 14 19 15 9 6 8 6 5 7 10 10 10 10 10 10 10
5 3 2 3 2 1 4 3 4 5 6 7 8 9 8 9 11 11 12 12 12 13 19 18 16 9 6 8 8 9 9 6 6 7 8 7 8 8
2 3 4 4 4 3 3 3 4 4 5 6 7 8 9 10 11 11 11 11 10 11 14 14 17 10 3 7 7 8 8 5 6 8 7 7 7 9
4 4 4 3 3 3 3 4 3 4 5 6 7 8 9 10 10 12 10 10 11 11 12 14 14 12 3 3 16 10 6 4 4 8 6 7 7 7
6 4 3 3 3 3 3 4 5 4 6 6 7 8 9 10 11 10 10 8 11 11 11 11 13 12 9 8 5 15 6 5 4 6 6 7 5 7
3 3 3 3 2 2 3 4 4 4 5 5 6 7 8 9 10 10 10 10 11 11 10 10 10 12 11 9 6 4 18 4 4 4 4 3 3 8
3 3 2 2 2 2 3 4 4 4 5 5 5 7 8 9 10 10 10 9 10 7 11 9 10 19 8 7 8 9 9 14 15 9 4 4 3 4
3 3 3 1 1 2 3 3 3 2 3 4 5 6 7 8 9 11 10 11 11 6 7 8 10 9 9 9 9 11 11 10 12 20 27 18 3 5
4 3 2 1 2 2 2 1 2 2 3 5 5 6 7 8 9 9 9 9 9 10 9 10 8 7 8 8 10 9 14 13 8 13 16 28 22 18
Wind_Direction
242 237 239 244 248 243 245 255 278 294 302 313 294 236 283 291 303 301 299 302 303 290 290 288 289 291 296 297 289 278 271 265 260 261 255 240 234 233
241 232 239 248 243 247 250 251 249 272 287 292 276 286 290 287 287 286 291 297 276 270 272 275 276 280 281 284 282 281 270 262 257 249 248 245 237 231
239 240 246 246 253 248 237 247 249 246 268 287 285 270 281 284 295 291 286 286 280 255 258 264 273 276 277 277 274 273 273 267 256 250 243 241 239 235
237 236 252 248 245 246 236 246 252 250 259 271 286 286 273 289 290 291 287 287 285 277 271 275 271 267 266 265 264 263 261 263 262 252 241 239 236 231
249 253 260 264 261 264 249 253 255 250 247 261 279 288 290 295 298 286 284 287 281 273 247 250 256 257 257 257 254 256 252 254 253 250 243 236 234 230
246 250 255 251 255 265 268 265 265 266 265 253 265 278 279 284 281 284 284 283 289 291 286 268 268 268 259 255 254 253 253 249 245 243 239 236 232 229
250 252 245 255 258 260 266 274 281 269 271 270 270 279 282 290 296 299 294 290 289 282 283 288 290 288 284 259 256 248 243 245 243 238 234 231 227 224
255 256 248 232 243 247 252 257 269 270 275 280 285 291 295 285 294 294 296 293 293 290 294 288 288 284 281 274 269 258 250 240 236 234 230 224 221 220
254 260 263 256 242 269 262 251 249 237 253 277 280 276 290 297 306 298 289 282 281 290 295 286 287 282 280 278 266 256 251 242 243 239 233 224 218 218
254 259 262 270 259 268 279 279 286 282 269 264 282 287 290 300 299 291 283 279 278 272 274 283 296 284 282 270 263 253 250 241 238 237 230 223 214 212
277 246 231 253 262 238 272 280 286 287 228 227 252 269 272 275 276 284 277 284 291 292 302 294 292 284 276 268 259 248 239 236 229 230 223 219 210 205
264 246 224 254 237 223 261 273 281 302 310 311 307 296 285 291 276 269 281 280 290 294 293 294 286 280 281 261 247 244 236 224 220 220 217 212 202 208
241 232 218 192 213 198 243 266 301 321 301 296 300 306 307 305 301 301 298 289 292 286 292 295 293 284 259 257 251 255 244 237 215 215 217 206 190 202
248 235 180 181 194 206 240 11 301 293 296 301 301 306 311 312 312 311 305 293 287 276 289 291 284 275 261 252 250 241 248 231 218 206 203 195 183 195
246 83 99 215 194 210 180 311 287 298 307 298 305 309 313 312 306 301 304 304 299 294 291 297 298 275 244 252 268 272 285 218 199 189 181 166 170 185
170 192 41 74 25 316 256 254 314 313 312 302 309 309 312 312 314 318 313 313 308 309 311 328 321 272 257 255 243 259 266 191 186 181 165 160 165 179
211 202 209 216 237 266 295 306 307 303 300 314 310 318 321 318 318 322 319 315 309 313 322 333 333 323 356 332 263 227 231 192 185 172 154 161 174 181
221 241 231 232 257 289 301 312 297 298 323 314 319 326 322 322 325 319 321 331 318 323 324 336 340 345 272 110 49 355 327 179 166 172 171 175 178 181
240 237 238 234 260 277 296 303 309 327 307 320 329 327 324 322 324 326 325 325 330 329 326 334 342 349 349 11 359 37 332 319 159 167 173 186 188 187
243 225 218 210 230 264 301 310 309 318 329 335 331 333 328 330 329 330 330 334 334 325 327 346 348 348 346 345 351 22 6 327 332 159 159 123 83 97
230 233 221 205 218 278 312 302 305 339 333 331 339 337 334 334 337 335 333 333 336 336 339 341 334 330 343 339 21 9 352 36 40 28 338 150 133 131
184 185 184 203 282 307 308 313 308 318 347 343 343 337 338 336 341 340 342 348 345 327 329 327 339 351 2 4 10 7 10 3 23 40 42 33 311 157
183 181 165 243 257 292 317 308 313 346 358 347 337 337 339 342 344 344 345 352 356 351 0 354 0 359 357 356 5 14 21 13 12 32 34 15 21 71